RS-44 & BREEZE-KM R/B

Last updated on Fri Dec 19 2025 00:03:11 GMT+0000 (Coordinated Universal Time)

1 44909U 19096E 25352.40860779 -.00000001 00000+0 -48186-4 0 9992 2 44909 82.5214 99.8420 0217245 206.8050 152.1694 12.79746135279229
UTC large
Height (km)
Speed (km/s)
/
Latitude / Longitude
Inclination (degrees)
Orbital Period (minutes)
Azimuth
Elevation
Range (km)
Doppler Factor

Next 0 passes for location: London (51.5072 / 0.1276)

Sorry there are no passes over London.